TimeMST,TemperatureF,Dew PointF,Humidity,Sea Level PressureIn,VisibilityMPH,Wind Direction,Wind SpeedMPH,Gust SpeedMPH,PrecipitationIn,Events,Conditions,WindDirDegrees,DateUTC
12:15 AM,46.8,12.2,25,29.94,10.0,WNW,8.1,-,N/A,,Clear,300,2012-12-07 07:15:00
12:35 AM,46.2,12.7,26,29.94,10.0,WNW,9.2,-,N/A,,Clear,290,2012-12-07 07:35:00
12:55 AM,45.9,12.9,27,29.94,10.0,WNW,9.2,-,N/A,,Clear,290,2012-12-07 07:55:00
1:15 AM,45.7,13.1,27,29.94,10.0,WNW,8.1,-,N/A,,Clear,300,2012-12-07 08:15:00
1:35 AM,45.7,13.8,28,29.94,10.0,WNW,6.9,-,N/A,,Clear,300,2012-12-07 08:35:00
1:55 AM,45.1,14.0,29,29.94,10.0,WNW,8.1,-,N/A,,Clear,290,2012-12-07 08:55:00
2:15 AM,44.2,14.0,30,29.94,10.0,WNW,9.2,-,N/A,,Clear,290,2012-12-07 09:15:00
2:35 AM,44.4,14.5,30,29.94,10.0,West,10.4,-,N/A,,Clear,280,2012-12-07 09:35:00
2:55 AM,45.1,15.4,30,29.94,10.0,WNW,9.2,-,N/A,,Clear,290,2012-12-07 09:55:00
3:15 AM,45.5,16.0,31,29.94,10.0,WNW,9.2,-,N/A,,Clear,290,2012-12-07 10:15:00
3:35 AM,46.6,16.7,30,29.94,10.0,West,10.4,-,N/A,,Clear,280,2012-12-07 10:35:00
3:55 AM,46.0,16.9,31,29.94,10.0,West,10.4,-,N/A,,Clear,280,2012-12-07 10:55:00
4:15 AM,48.0,18.0,30,29.94,10.0,West,11.5,-,N/A,,Clear,280,2012-12-07 11:15:00
4:35 AM,46.9,17.8,31,29.94,10.0,West,9.2,-,N/A,,Clear,280,2012-12-07 11:35:00
4:55 AM,46.4,17.6,32,29.94,10.0,West,10.4,-,N/A,,Clear,260,2012-12-07 11:55:00
5:15 AM,44.6,17.6,34,29.95,10.0,West,10.4,-,N/A,,Clear,270,2012-12-07 12:15:00
5:35 AM,46.9,19.0,33,29.95,10.0,West,12.7,-,N/A,,Clear,270,2012-12-07 12:35:00
5:55 AM,47.3,19.0,33,29.95,10.0,West,9.2,-,N/A,,Clear,260,2012-12-07 12:55:00
6:15 AM,47.5,19.8,33,29.96,10.0,WSW,9.2,-,N/A,,Clear,250,2012-12-07 13:15:00
6:35 AM,45.9,19.2,35,29.96,10.0,West,8.1,-,N/A,,Clear,270,2012-12-07 13:35:00
6:55 AM,46.4,19.8,35,29.97,10.0,West,9.2,-,N/A,,Clear,280,2012-12-07 13:55:00
7:15 AM,48.0,20.5,34,29.98,10.0,West,12.7,-,N/A,,Clear,280,2012-12-07 14:15:00
7:35 AM,49.1,21.0,33,29.98,10.0,West,11.5,-,N/A,,Clear,270,2012-12-07 14:35:00
7:55 AM,48.7,21.0,34,29.98,10.0,West,11.5,-,N/A,,Clear,270,2012-12-07 14:55:00
8:15 AM,48.6,21.0,34,29.99,10.0,West,11.5,-,N/A,,Clear,270,2012-12-07 15:15:00
8:35 AM,51.4,22.1,32,29.99,10.0,West,12.7,-,N/A,,Clear,260,2012-12-07 15:35:00
8:55 AM,55.2,23.0,29,29.99,10.0,West,16.1,-,N/A,,Clear,260,2012-12-07 15:55:00
9:15 AM,56.8,23.0,27,29.98,10.0,West,17.3,-,N/A,,Clear,260,2012-12-07 16:15:00
9:35 AM,59.0,23.0,25,29.99,10.0,West,16.1,-,N/A,,Clear,270,2012-12-07 16:35:00
9:55 AM,61.0,23.2,24,29.99,10.0,West,11.5,-,N/A,,Clear,260,2012-12-07 16:55:00
10:15 AM,62.6,23.9,23,29.99,10.0,West,13.8,-,N/A,,Clear,260,2012-12-07 17:15:00
10:35 AM,63.5,25.2,23,29.99,10.0,West,15.0,-,N/A,,Clear,260,2012-12-07 17:35:00
10:55 AM,65.3,26.4,23,29.98,10.0,West,18.4,-,N/A,,Clear,270,2012-12-07 17:55:00
11:15 AM,65.7,26.4,23,29.97,10.0,West,16.1,24.2,N/A,,Clear,270,2012-12-07 18:15:00
11:35 AM,65.5,26.6,23,29.96,10.0,West,13.8,23.0,N/A,,Clear,260,2012-12-07 18:35:00
11:55 AM,66.6,27.3,23,29.95,10.0,WSW,16.1,20.7,N/A,,Clear,250,2012-12-07 18:55:00
12:15 PM,66.6,28.6,24,29.95,10.0,West,20.7,25.3,N/A,,Clear,270,2012-12-07 19:15:00
12:35 PM,66.7,28.6,24,29.94,10.0,WSW,18.4,26.5,N/A,,Clear,250,2012-12-07 19:35:00
12:55 PM,67.5,29.1,24,29.93,10.0,West,17.3,20.7,N/A,,Clear,260,2012-12-07 19:55:00
1:15 PM,67.6,28.9,24,29.92,10.0,WSW,13.8,-,N/A,,Clear,250,2012-12-07 20:15:00
1:35 PM,67.6,30.0,25,29.91,10.0,WSW,17.3,24.2,N/A,,Clear,250,2012-12-07 20:35:00
1:55 PM,67.5,30.0,25,29.90,10.0,WSW,16.1,24.2,N/A,,Clear,250,2012-12-07 20:55:00
2:15 PM,68.2,30.0,24,29.90,10.0,WSW,17.3,23.0,N/A,,Clear,240,2012-12-07 21:15:00
2:35 PM,68.0,30.2,24,29.90,10.0,WSW,19.6,32.2,N/A,,Clear,250,2012-12-07 21:35:00
2:55 PM,67.5,30.4,25,29.90,10.0,WSW,19.6,29.9,N/A,,Clear,250,2012-12-07 21:55:00
3:15 PM,67.5,30.7,25,29.90,10.0,West,20.7,27.6,N/A,,Clear,260,2012-12-07 22:15:00
3:35 PM,67.1,30.9,26,29.90,10.0,WSW,19.6,27.6,N/A,,Clear,250,2012-12-07 22:35:00
3:55 PM,66.4,31.1,27,29.90,10.0,WSW,20.7,27.6,N/A,,Clear,250,2012-12-07 22:55:00
4:15 PM,65.3,30.6,27,29.90,10.0,WSW,18.4,26.5,N/A,,Clear,250,2012-12-07 23:15:00
4:35 PM,64.6,30.6,28,29.91,10.0,West,17.3,23.0,N/A,,Clear,260,2012-12-07 23:35:00
4:55 PM,63.3,29.8,28,29.91,10.0,West,13.8,24.2,N/A,,Clear,260,2012-12-07 23:55:00
5:15 PM,61.7,29.7,30,29.92,10.0,WSW,10.4,-,N/A,,Clear,250,2012-12-08 00:15:00
5:35 PM,60.4,29.7,31,29.92,10.0,WSW,11.5,-,N/A,,Clear,250,2012-12-08 00:35:00
6:15 PM,58.1,28.9,33,29.93,10.0,West,10.4,-,N/A,,Clear,260,2012-12-08 01:15:00
6:35 PM,57.4,28.4,33,29.94,10.0,West,12.7,-,N/A,,Clear,280,2012-12-08 01:35:00
6:55 PM,58.6,27.5,30,29.95,10.0,West,12.7,-,N/A,,Clear,280,2012-12-08 01:55:00
7:15 PM,58.3,27.1,30,29.95,10.0,West,11.5,-,N/A,,Clear,280,2012-12-08 02:15:00
7:35 PM,56.5,26.4,32,29.95,10.0,WNW,9.2,-,N/A,,Clear,290,2012-12-08 02:35:00
7:55 PM,55.6,26.2,32,29.95,10.0,West,10.4,-,N/A,,Clear,270,2012-12-08 02:55:00
8:15 PM,53.6,25.9,34,29.95,10.0,West,9.2,-,N/A,,Clear,260,2012-12-08 03:15:00
8:55 PM,50.7,26.8,40,29.95,10.0,West,11.5,-,N/A,,Clear,270,2012-12-08 03:55:00
9:35 PM,50.0,27.1,41,29.95,10.0,West,9.2,-,N/A,,Clear,260,2012-12-08 04:35:00
9:55 PM,49.5,27.3,42,29.95,10.0,West,10.4,-,N/A,,Clear,260,2012-12-08 04:55:00
10:15 PM,48.6,27.5,44,29.96,10.0,West,9.2,-,N/A,,Clear,260,2012-12-08 05:15:00
10:35 PM,47.5,27.3,46,29.96,10.0,West,6.9,-,N/A,,Clear,270,2012-12-08 05:35:00
10:55 PM,48.2,28.4,46,29.96,10.0,Calm,Calm,-,N/A,,Clear,0,2012-12-08 05:55:00
11:15 PM,47.1,27.5,47,29.96,10.0,Calm,Calm,-,N/A,,Clear,0,2012-12-08 06:15:00
11:35 PM,46.8,27.7,47,29.96,10.0,Calm,Calm,-,N/A,,Clear,0,2012-12-08 06:35:00
11:55 PM,46.4,28.2,49,29.96,10.0,Calm,Calm,-,N/A,,Clear,0,2012-12-08 06:55:00